Torna al catalogo

SL-12 DEB

LostHEO
NORAD 38680·DEBRIS·🇷🇺 Russia

Lanciato Apr 8, 1996 da Baikonur Cosmodrome

Loading…

Prossimi Passaggi (prossime 24 ore)

TLE

ObsoletoSource: Space-Track

Epoca: Jul 27, 2012, 05:43 UTC

1 38680U 96021E   12209.23821333 -.00000082  00000-0  10000-3 0  9997
2 38680   6.1400 194.1478 3657863 351.6711   3.4595  1.63886107 24512

Traccia SL-12 DEB in tempo reale con AllMySat

Download on the App Store